Regional Weather Roundup
Issued by NWS

Home | Current Version | Previous Version | Graphics & Text | Print | Product List | Glossary On
Versions: 1 2 3 4 5 6 7 8 9 10 11 12 13 14 15 16 17 18 19 20 21 22 23 24 25 26 27 28 29 30 31 32 33 34 35 36 37 38 39 40 41 42 43 44 45 46 47 48 49 50
000
ASUS44 KMEG 220810
RWRTN
TENNESSEE HOURLY STATE WEATHER ROUNDUP
NATIONAL WEATHER SERVICE MEMPHIS TN
300 AM CDT TUE APR 22 2014

TNZ002-004-019-021-049-052-054-088>092-220900-
WEST TENNESSEE

CITY           SKY/WX    TMP DP  RH WIND       PRES   REMARKS
MEMPHIS INTL   CLOUDY    63  61  93 SW5       29.91F
NWS MEMPHIS      N/A     63 N/A N/A MISG        N/A
JACKSON        CLOUDY    62  60  93 SW3       29.90F
DYERSBURG      CLOUDY    63  54  72 W5        29.91F
UNION CITY     CLOUDY    63  59  88 SW5       29.88F
PARIS          MOCLDY    60  56  87 SW7       29.90F
LEXINGTON      CLOUDY    61  61 100 CALM      29.90F
SAVANNAH       CLOUDY    61  61 100 CALM      29.91F VSB 3/4
$$

TNZ008-025-027-028-033-062-065-066-220900-
NORTH MIDDLE TENNESSEE

CITY           SKY/WX    TMP DP  RH WIND       PRES   REMARKS
NASHVILLE      CLOUDY    67  55  65 SW6       29.89F
DICKSON        MOCLDY    63  57  82 W8        29.90F
PORTLAND         N/A     64  54  68 SW3       29.87F
CLARKSVILLE    CLOUDY    65  57  75 SW5       29.88F
SMYRNA         LGT RAIN  64  60  87 SW13G18   29.91S
MURFREESBORO   CLOUDY    65  57  75 SW7       29.90S
COOKEVILLE     PTCLDY    61  55  82 CALM      29.89F
GALLATIN       MOCLDY    60  59  97 CALM      29.89F
CROSSVILLE     CLOUDY    62  49  62 CALM      29.92F
$$

TNZ061-075-076-078-094-096-097-220900-
SOUTH MIDDLE TENNESSEE

CITY           SKY/WX    TMP DP  RH WIND       PRES   REMARKS
LEWISBURG      CLOUDY    61  60  96 W6        29.92R
FAYETTEVILLE   CLOUDY    61  57  86 W5        29.92F
TULLAHOMA      CLOUDY    63  52  67 W8        29.93S
WINCHESTER     CLOUDY    66  54  63 SW9       29.92F
MCMINNVILLE    MOCLDY    59  57  94 CALM      29.91F
COLUMBIA       CLOUDY    61  61 100 SW5       29.91F
SHELBYVILLE    CLOUDY    63  59  88 W9        29.94R
$$

TNZ017-018-042-046-047-220900-
NORTHEAST TENNESSEE

CITY           SKY/WX    TMP DP  RH WIND       PRES   REMARKS
TRI CITIES     MOCLDY    52  44  74 E3        29.89F
ELIZABETHTON   MOSUNNY   48  45  87 CALM      29.91F
$$

TNZ012-013-036-069-073-074-220900-
CENTRAL EAST TENNESSEE

CITY           SKY/WX    TMP DP  RH WIND       PRES   REMARKS
KNOXVILLE      CLOUDY    61  49  64 SW6       29.88
OAK RIDGE      CLOUDY    63  50  62 CALM      29.90F
$$

TNZ083-085-099-220900-
SOUTHEAST TENNESSEE

CITY           SKY/WX    TMP DP  RH WIND       PRES   REMARKS
CHATTANOOGA    PTCLDY    59  52  77 CALM      29.91F
$$

SKY/WX REPORTED AS FAIR MEANS FEW OR NO CLOUDS BELOW
12 THOUSAND FEET.




USA.gov is the U.S. government's official web portal to all federal, state and local government web resources and services.